Zurück zum Katalog

FENGYUN 1C DEB

AktivSSO
NORAD 30728·DEBRIS·🇨🇳 China

Gestartet May 10, 1999 von Taiyuan Satellite Launch Center

Loading…

Nächste Überflüge (nächste 24 Stunden)

TLE

AktuellSource: Space-Track

Epoche: Sep 14, 2026, 23:14 UTC

1 30728U 99025ASN 26257.96821677  .00000078  00000-0  50427-4 0  9990
2 30728  98.5321 261.3343 0098285 357.8456   2.2287 14.23565942 16168

Verfolge FENGYUN 1C DEB in Echtzeit mit AllMySat

Download on the App Store